This demonstration page uses our WeatherBlox Daily Observations layout. Learn more.

Left ArrowRight Arrow

39.51506, -84.39828

Hourly Observations for December 24, 2018

Temp ( °F °C ) Dew Point ( °F °C ) Humidity (%) Winds ( mph kmh ) Pressure ( in mb ) Visibility ( mi km ) Precip ( " mm )
12:15 am 00:15 Partly Cloudy 29 -1.4 27 -2.7 91 91 SSW 6 9 30.27 1025 10 16 N/A
12:35 am 00:35 Partly Cloudy 30 -1.2 28 -2.5 91 91 SSW 7 11 30.24 1024 10 16 N/A
12:55 am 00:55 Partly Cloudy 29 -1.5 27 -2.7 92 92 SW 7 11 30.27 1025 7 11 N/A
1:15 am 01:15 Cloudy 30 -1 28 -2.2 92 92 SW 7 11 30.27 1025 7 11 N/A
1:35 am 01:35 Partly Cloudy 30 -1.1 28 -2.4 91 91 SW 6 9 30.24 1024 7 11 N/A
1:55 am 01:55 Clear 29 -1.9 27 -2.9 93 93 SW 6 9 30.27 1025 7 11 N/A
2:15 am 02:15 Clear with Mist and Fog 29 -1.9 27 -2.9 93 93 SW 6 9 30.27 1025 7 11 N/A
2:35 am 02:35 Clear with Mist and Fog 29 -1.8 27 -2.8 93 93 SW 7 11 30.27 1025 7 11 N/A
2:55 am 02:55 Clear with Mist and Fog 28 -2.1 27 -3 94 94 SW 6 9 30.27 1025 7 11 N/A
3:15 am 03:15 Clear with Mist and Fog 28 -2.4 26 -3.2 94 94 SW 8 13 30.27 1025 7 11 N/A
3:35 am 03:35 Clear with Mist and Fog 28 -2.2 27 -3 94 94 SW 7 11 30.27 1025 7 11 N/A
3:55 am 03:55 Clear with Mist and Fog 28 -2.4 26 -3.2 94 94 SW 7 11 30.27 1025 5 8 N/A
4:15 am 04:15 Clear with Mist and Fog 28 -2 27 -2.8 94 94 SSW 9 15 30.27 1025 7 11 N/A
4:35 am 04:35 Clear with Mist and Fog 28 -2 27 -2.9 94 94 SW 7 11 30.27 1025 7 11 N/A
4:55 am 04:55 Clear with Mist and Fog 27 -2.6 26 -3.4 94 94 SW 6 9 30.27 1025 5 8 N/A
5:15 am 05:15 Clear with Mist and Fog 27 -3 25 -3.7 95 95 SSW 7 11 30.27 1025 5 8 N/A
5:35 am 05:35 Clear with Mist and Fog 27 -2.7 26 -3.3 96 96 SSW 8 13 30.30 1026 5 8 N/A
5:55 am 05:55 Clear with Mist and Fog 27 -2.7 26 -3.4 95 95 SW 8 13 30.30 1026 5 8 N/A
6:15 am 06:15 Clear with Mist and Fog 27 -2.9 25 -3.7 94 94 WSW 6 9 30.30 1026 5 8 N/A
6:35 am 06:35 Clear with Mist and Fog 26 -3.3 25 -4 95 95 SW 6 9 30.30 1026 5 8 N/A
6:55 am 06:55 Clear with Mist and Fog 26 -3.3 25 -4.1 94 94 SW 6 9 30.30 1026 5 8 N/A
7:15 am 07:15 Clear with Mist and Fog 26 -3.3 25 -4.1 94 94 SW 5 7 30.30 1026 7 11 N/A
7:35 am 07:35 Clear with Mist and Fog 26 -3.6 24 -4.3 95 95 SW 5 7 30.30 1026 5 8 N/A
7:55 am 07:55 Clear with Mist and Fog 26 -3.5 24 -4.3 94 94 SW 3 6 30.30 1026 5 8 N/A
8:15 am 08:15 Sunny with Mist and Fog 26 -3.4 24 -4.2 94 94 SW 5 7 30.30 1026 5 8 N/A
8:35 am 08:35 Sunny with Mist and Fog 27 -3 25 -3.9 94 94 SW 3 6 30.30 1026 5 8 N/A
8:55 am 08:55 Sunny with Mist and Fog 28 -2.3 26 -3.2 94 94 SW 3 6 30.33 1027 5 8 N/A
9:15 am 09:15 Sunny with Mist and Fog 29 -1.4 28 -2.5 92 92 SW 5 7 30.33 1027 5 8 N/A
9:35 am 09:35 Sunny with Mist and Fog 31 -0.8 28 -2.2 90 90 SW 5 7 30.33 1027 7 11 N/A
9:55 am 09:55 Sunny 32 -0.2 28 -2 88 88 SSW 7 11 30.33 1027 7 11 N/A
10:15 am 10:15 Sunny 33 0.3 29 -1.7 87 87 SW 7 11 30.33 1027 10 16 N/A
10:35 am 10:35 Sunny 34 0.9 28 -2 81 81 SW 8 13 30.33 1027 10 16 N/A
10:55 am 10:55 Sunny 34 1.3 28 -2.4 77 77 W 9 15 30.33 1027 10 16 N/A
11:15 am 11:15 Sunny 35 1.9 28 -2.1 75 75 SW 8 13 30.30 1026 10 16 N/A
11:35 am 11:35 Sunny 37 2.6 28 -2 72 72 WSW 6 9 30.30 1026 10 16 N/A
11:55 am 11:55 Sunny 38 3.1 29 -1.9 70 70 SW 9 15 30.30 1026 10 16 N/A
12:15 pm 12:15 Sunny 38 3.4 28 -2.2 67 67 WSW 12 19 30.30 1026 10 16 N/A
12:35 pm 12:35 Sunny 39 3.9 28 -2.2 65 65 WSW 10 17 30.30 1026 10 16 N/A
12:55 pm 12:55 Sunny 39 4 27 -2.7 62 62 WSW 13 20 30.30 1026 10 16 N/A
1:15 pm 13:15 Sunny 40 4.7 28 -2.4 60 60 WSW 13 20 30.30 1026 10 16 N/A
1:35 pm 13:35 Sunny 40 4.7 26 -3.4 56 56 W 9 15 30.27 1025 10 16 N/A
1:55 pm 13:55 Sunny 41 4.9 26 -3.6 55 55 W 13 20 30.30 1026 10 16 N/A
2:15 pm 14:15 Sunny 41 5.2 27 -3 56 56 W 8 13 30.27 1025 10 16 N/A
2:35 pm 14:35 Sunny 41 4.9 25 -4 53 53 W 10 17 30.30 1026 10 16 N/A
2:55 pm 14:55 Sunny 40 4.7 24 -4.4 52 52 W 12 19 30.30 1026 10 16 N/A
3:15 pm 15:15 Sunny 40 4.6 24 -4.5 52 52 W 9 15 30.30 1026 10 16 N/A
3:35 pm 15:35 Sunny 41 5.1 24 -4.2 51 51 WNW 10 17 30.30 1026 10 16 N/A
3:55 pm 15:55 Sunny 40 4.7 24 -4.7 51 51 W 8 13 30.30 1026 10 16 N/A
4:15 pm 16:15 Sunny 40 4.2 23 -5 52 52 W 12 19 30.30 1026 10 16 N/A
4:35 pm 16:35 Sunny 39 3.8 23 -5 53 53 W 8 13 30.30 1026 10 16 N/A
4:55 pm 16:55 Sunny 37 2.7 23 -4.8 58 58 W 7 11 30.30 1026 10 16 N/A
5:15 pm 17:15 Sunny 35 1.8 23 -5 61 61 WNW 6 9 30.30 1026 10 16 N/A
5:35 pm 17:35 Clear 35 1.7 24 -4.6 63 63 W 3 6 30.30 1026 10 16 N/A
5:55 pm 17:55 Clear 32 0.1 25 -3.9 75 75 N N/A 30.30 1026 10 16 N/A
6:15 pm 18:15 Clear 31 -0.6 26 -3.2 83 83 N N/A 30.33 1027 10 16 N/A
6:35 pm 18:35 Clear 28 -2.4 24 -4.2 88 88 N N/A 30.33 1027 10 16 N/A
6:55 pm 18:55 Clear 29 -1.5 25 -3.7 85 85 N N/A 30.33 1027 10 16 N/A
7:15 pm 19:15 Clear 29 -1.6 25 -4 84 84 N N/A 30.33 1027 10 16 N/A
7:35 pm 19:35 Clear 29 -1.6 25 -3.8 85 85 N 3 6 30.33 1027 10 16 N/A
7:55 pm 19:55 Clear 28 -2.3 25 -4 88 88 N N/A 30.33 1027 10 16 N/A
8:15 pm 20:15 Clear 29 -1.9 26 -3.6 88 88 N N/A 30.33 1027 10 16 N/A
8:35 pm 20:35 Clear 27 -2.6 25 -4.1 90 90 N N/A 30.30 1026 10 16 N/A
8:55 pm 20:55 Clear 27 -2.9 24 -4.2 91 91 N 3 6 30.30 1026 10 16 N/A
9:15 pm 21:15 Clear 28 -2.2 25 -3.8 89 89 NNE 6 9 30.30 1026 10 16 N/A
9:35 pm 21:35 Clear 28 -2.3 25 -3.8 90 90 N N/A 30.30 1026 10 16 N/A
9:55 pm 21:55 Clear 29 -1.8 25 -3.8 86 86 N N/A 30.30 1026 10 16 N/A
10:15 pm 22:15 Clear 28 -2.3 25 -3.9 89 89 N N/A 30.33 1027 10 16 N/A
10:35 pm 22:35 Partly Cloudy 28 -2.3 25 -3.9 89 89 N N/A 30.33 1027 10 16 N/A
10:55 pm 22:55 Partly Cloudy 27 -3 24 -4.3 91 91 N N/A 30.33 1027 10 16 N/A
11:15 pm 23:15 Partly Cloudy 27 -2.6 25 -3.9 91 91 N N/A 30.33 1027 10 16 N/A
11:35 pm 23:35 Clear 27 -2.8 25 -4.1 91 91 N N/A 30.33 1027 10 16 N/A
11:55 pm 23:55 Clear 27 -2.6 25 -3.8 92 92 N N/A 30.33 1027 10 16 N/A

Powered by AerisWeather